When you browse on this site, cookies collect data to enhance your experience and personalize the content and advertising you see.
Visit our Privacy Policy to learn more. By continuing to use the site, you agree to this use of cookies and data.
  • In United Kingdom
  • List of Countries
  • For 7 days
  • Water Temperature
  • Satellite Maps
  • Weather Map
  • Weather Widgets
  • user-avatar
    Login

    Hourly Weather Porto-Novo

    Today, 15 December, Saturday

    Time Temperature Precipitation Wind Pressure Humidity
    00:00 +28°C° 0 mm 2 mps 759 mmHg 81%
    01:00 +28°C° 0 mm 2 mps 759 mmHg 83%
    02:00 +28°C° 0 mm 2 mps 759 mmHg 85%
    03:00 +27°C° 0 mm 2 mps 758 mmHg 86%
    04:00 +27°C° 0 mm 2 mps 759 mmHg 87%
    05:00 +27°C° 0 mm 2 mps 759 mmHg 88%
    06:00 +27°C° 0 mm 1 mps 759 mmHg 90%
    07:00 +29°C° 0 mm 1 mps 760 mmHg 79%
    08:00 +31°C° 0 mm 1 mps 760 mmHg 68%
    09:00 +34°C° 0 mm 1 mps 761 mmHg 57%
    10:00 +36°C° 0 mm 1 mps 760 mmHg 48%
    11:00 +39°C° 0 mm 1 mps 760 mmHg 39%
    12:00 +41°C° 0 mm 1 mps 759 mmHg 30%
    13:00 +40°C° 0 mm 2 mps 759 mmHg 33%
    14:00 +39°C° 0 mm 3 mps 758 mmHg 35%
    15:00 +38°C° 0 mm 4 mps 757 mmHg 37%
    16:00 +36°C° 0 mm 4 mps 757 mmHg 47%
    17:00 +34°C° 0 mm 4 mps 757 mmHg 57%
    18:00 +32°C° 0 mm 4 mps 757 mmHg 66%
    19:00 +32°C° 0 mm 4 mps 758 mmHg 70%
    20:00 +30°C° 0 mm 4 mps 758 mmHg 74%
    21:00 +30°C° 0 mm 3 mps 759 mmHg 77%
    22:00 +29°C° 0 mm 3 mps 759 mmHg 79%
    23:00 +29°C° 0 mm 3 mps 759 mmHg 81%

    Tomorrow, 16 December, Sunday

    Time Temperature Precipitation Wind Pressure Humidity
    00:00 +29°C° 0 mm 3 mps 759 mmHg 82%
    01:00 +29°C° 0 mm 3 mps 758 mmHg 84%
    02:00 +28°C° 0 mm 3 mps 758 mmHg 85%
    03:00 +28°C° 0 mm 2 mps 758 mmHg 86%
    04:00 +28°C° 0 mm 2 mps 758 mmHg 87%
    05:00 +28°C° 0 mm 3 mps 758 mmHg 87%
    06:00 +28°C° 0 mm 3 mps 758 mmHg 87%
    07:00 +29°C° 0 mm 2 mps 759 mmHg 80%
    08:00 +30°C° 0 mm 2 mps 759 mmHg 73%
    09:00 +32°C° 0 mm 2 mps 760 mmHg 67%
    10:00 +35°C° 0 mm 2 mps 759 mmHg 59%
    11:00 +37°C° 0 mm 2 mps 759 mmHg 51%
    12:00 +38°C° 0 mm 2 mps 758 mmHg 44%
    13:00 +38°C° 0 mm 3 mps 758 mmHg 45%
    14:00 +38°C° 0 mm 3 mps 757 mmHg 46%
    15:00 +37°C° 0 mm 4 mps 756 mmHg 47%
    16:00 +36°C° 0 mm 4 mps 757 mmHg 55%
    17:00 +34°C° 0 mm 4 mps 757 mmHg 63%
    18:00 +32°C° 0 mm 5 mps 757 mmHg 70%
    19:00 +32°C° 0 mm 4 mps 758 mmHg 73%
    20:00 +30°C° 0 mm 4 mps 759 mmHg 75%
    21:00 +30°C° 0 mm 4 mps 759 mmHg 78%
    22:00 +30°C° 0 mm 4 mps 759 mmHg 79%
    23:00 +29°C° 0 mm 4 mps 759 mmHg 80%

    Day after tomorrow, 17 December, Monday

    Time Temperature Precipitation Wind Pressure Humidity
    00:00 +29°C° 0 mm 4 mps 759 mmHg 81%
    01:00 +29°C° 0 mm 4 mps 758 mmHg 82%
    02:00 +29°C° 0 mm 3 mps 758 mmHg 82%
    03:00 +28°C° 0 mm 3 mps 757 mmHg 83%
    04:00 +29°C° 0 mm 3 mps 758 mmHg 82%
    05:00 +29°C° 0 mm 3 mps 758 mmHg 81%
    06:00 +29°C° 0 mm 3 mps 758 mmHg 79%
    07:00 +30°C° 0.1 mm 3 mps 758 mmHg 76%
    08:00 +30°C° 0.1 mm 2 mps 759 mmHg 73%
    09:00 +31°C° 0.1 mm 2 mps 760 mmHg 69%
    10:00 +34°C° 0 mm 2 mps 759 mmHg 61%
    11:00 +36°C° 0 mm 2 mps 758 mmHg 52%
    12:00 +38°C° 0 mm 3 mps 758 mmHg 44%
    13:00 +38°C° 0.2 mm 3 mps 757 mmHg 45%
    14:00 +37°C° 0.2 mm 3 mps 757 mmHg 45%
    15:00 +37°C° 0.2 mm 4 mps 756 mmHg 46%
    16:00 +35°C° 0.1 mm 4 mps 756 mmHg 54%
    17:00 +34°C° 0.1 mm 4 mps 757 mmHg 62%
    18:00 +32°C° 0.1 mm 4 mps 757 mmHg 69%
    19:00 +32°C° 0.1 mm 4 mps 757 mmHg 72%
    20:00 +30°C° 0.1 mm 4 mps 758 mmHg 74%
    21:00 +30°C° 0.1 mm 3 mps 759 mmHg 76%
    22:00 +30°C° 0.1 mm 3 mps 758 mmHg 77%
    23:00 +29°C° 0.1 mm 3 mps 758 mmHg 79%

    18 December, Tuesday

    Time Temperature Precipitation Wind Pressure Humidity
    00:00 +29°C° 0.1 mm 3 mps 758 mmHg 80%
    01:00 +29°C° 0 mm 3 mps 758 mmHg 80%
    02:00 +29°C° 0 mm 3 mps 757 mmHg 81%
    03:00 +28°C° 0 mm 3 mps 757 mmHg 81%
    04:00 +28°C° 0 mm 3 mps 757 mmHg 82%
    05:00 +28°C° 0 mm 2 mps 758 mmHg 83%
    06:00 +28°C° 0 mm 2 mps 758 mmHg 84%
    07:00 +30°C° 0 mm 2 mps 758 mmHg 75%
    08:00 +31°C° 0 mm 3 mps 759 mmHg 67%
    09:00 +34°C° 0 mm 3 mps 759 mmHg 58%
    10:00 +36°C° 0.1 mm 3 mps 759 mmHg 53%
    11:00 +37°C° 0.1 mm 3 mps 758 mmHg 48%
    12:00 +39°C° 0.1 mm 3 mps 758 mmHg 43%
    13:00 +37°C° 0.6 mm 3 mps 757 mmHg 48%
    14:00 +36°C° 0.6 mm 4 mps 757 mmHg 52%
    15:00 +35°C° 0.6 mm 4 mps 756 mmHg 56%
    16:00 +34°C° 0 mm 4 mps 756 mmHg 60%
    17:00 +33°C° 0 mm 4 mps 757 mmHg 65%
    18:00 +32°C° 0 mm 4 mps 757 mmHg 69%
    19:00 +32°C° 0.1 mm 4 mps 757 mmHg 71%
    20:00 +30°C° 0.1 mm 4 mps 758 mmHg 73%
    21:00 +30°C° 0.1 mm 4 mps 759 mmHg 75%
    22:00 +30°C° 0 mm 4 mps 758 mmHg 76%
    23:00 +29°C° 0 mm 4 mps 758 mmHg 77%

    19 December, Wednesday

    Time Temperature Precipitation Wind Pressure Humidity
    00:00 +29°C° 0 mm 4 mps 758 mmHg 78%
    01:00 +29°C° 0.7 mm 4 mps 758 mmHg 80%
    02:00 +28°C° 0.7 mm 3 mps 757 mmHg 82%
    03:00 +28°C° 0.7 mm 3 mps 757 mmHg 83%
    04:00 +28°C° 0.3 mm 3 mps 757 mmHg 83%
    05:00 +28°C° 0.3 mm 3 mps 758 mmHg 83%
    06:00 +28°C° 0.3 mm 3 mps 758 mmHg 83%
    07:00 +29°C° 0.1 mm 3 mps 758 mmHg 76%
    08:00 +31°C° 0.1 mm 3 mps 759 mmHg 69%
    09:00 +33°C° 0.1 mm 3 mps 759 mmHg 62%
    10:00 +35°C° 0.1 mm 3 mps 759 mmHg 55%
    11:00 +37°C° 0.1 mm 3 mps 758 mmHg 48%
    12:00 +39°C° 0.1 mm 3 mps 758 mmHg 40%
    13:00 +38°C° 0 mm 3 mps 757 mmHg 42%
    14:00 +38°C° 0 mm 3 mps 756 mmHg 43%
    15:00 +37°C° 0 mm 3 mps 756 mmHg 44%
    16:00 +35°C° 0 mm 4 mps 756 mmHg 50%
    17:00 +34°C° 0 mm 4 mps 756 mmHg 57%
    18:00 +32°C° 0 mm 4 mps 756 mmHg 63%
    19:00 +32°C° 0 mm 4 mps 757 mmHg 66%
    20:00 +30°C° 0 mm 4 mps 757 mmHg 70%
    21:00 +30°C° 0 mm 4 mps 758 mmHg 73%
    22:00 +30°C° 0 mm 4 mps 758 mmHg 75%
    23:00 +29°C° 0 mm 4 mps 757 mmHg 77%

    20 December, Thursday

    Time Temperature Precipitation Wind Pressure Humidity
    00:00 +29°C° 0 mm 4 mps 757 mmHg 79%
    01:00 +29°C° 0.6 mm 3 mps 757 mmHg 81%
    02:00 +29°C° 0.6 mm 3 mps 757 mmHg 83%
    03:00 +28°C° 0.6 mm 3 mps 756 mmHg 85%
    04:00 +28°C° 0.4 mm 3 mps 757 mmHg 86%
    05:00 +28°C° 0.4 mm 3 mps 757 mmHg 86%
    06:00 +28°C° 0.4 mm 3 mps 758 mmHg 87%
    07:00 +29°C° 0 mm 3 mps 758 mmHg 80%
    08:00 +30°C° 0 mm 3 mps 758 mmHg 73%
    09:00 +33°C° 0 mm 3 mps 759 mmHg 66%
    10:00 +34°C° 0 mm 3 mps 758 mmHg 58%
    11:00 +36°C° 0 mm 3 mps 758 mmHg 51%
    12:00 +38°C° 0 mm 3 mps 757 mmHg 43%
    13:00 +37°C° 0 mm 3 mps 757 mmHg 44%
    14:00 +37°C° 0 mm 3 mps 756 mmHg 44%
    15:00 +37°C° 0 mm 4 mps 756 mmHg 45%
    16:00 +35°C° 0 mm 4 mps 756 mmHg 51%
    17:00 +34°C° 0 mm 4 mps 756 mmHg 57%
    18:00 +32°C° 0 mm 4 mps 756 mmHg 64%
    19:00 +32°C° 0 mm 4 mps 757 mmHg 67%
    20:00 +30°C° 0 mm 4 mps 757 mmHg 69%
    21:00 +30°C° 0 mm 4 mps 758 mmHg 72%
    22:00 +30°C° 0 mm 4 mps 758 mmHg 74%
    23:00 +29°C° 0 mm 3 mps 757 mmHg 76%
    Show more